Flag for U.S.A. Weather past 2 weeks in St. Petersburg, Florida, U.S.A.

Now
72 °F

Passing clouds.


Feels Like: 69 °F
Forecast: 70 / 76 °F
Wind: 20 mph from Southeast

Location: Whitted Airport


UV Index: 0 (Low)

Visibility: 10 mi


Pressure: 30.01 "Hg

Humidity: 91%

Dew point: 69 °F

Location of St. PetersburgLocation

Historic Weather in St. Petersburg

°F

St. Petersburg temperature yesterday

Maximum temperature yesterday: 79 °F (at 1:53 PM)
Minimum temperature yesterday: 66 °F (at 12:53 AM)
Average temperature yesterday: 72 °F

Past Weeks' High & Low Weather Summary

 TemperatureHumidityPressure
High83 °F (Apr 7, 12:53 PM)97% (Apr 5, 8:53 AM)30.28 "Hg (Apr 5, 8:53 AM)
Low55 °F (Apr 16, 8:53 AM)35% (Apr 10, 3:53 PM)29.73 "Hg (Apr 8, 4:53 AM)
Average73 °F75%30.02 "Hg
* Reported Apr 3 5:53 AM — Apr 18 5:53 AM, St. Petersburg, Weather by CustomWeather, © 2014

Note: Actual official high and low records may vary slightly from our data, if they occured in-between our weather recording intervals... More about our weather records

Advertising

Historic Weather Conditions — Data for Previous 24 hours

 ConditionsComfort  
Time TempWeatherWind HumidityBarometerVisibility
5:53 AM
Apr 18
72 °FPassing clouds.20 mph91%30.01 "Hg10 mi
4:53 AM72 °FPassing clouds.18 mph91%30.02 "Hg10 mi
3:53 AM72 °FMostly cloudy.16 mph87%30.03 "Hg10 mi
2:53 AM72 °FMostly cloudy.17 mph91%30.06 "Hg10 mi
1:53 AM72 °FPassing clouds.15 mph87%30.10 "Hg10 mi
12:53 AM72 °FPassing clouds.21 mph91%30.10 "Hg10 mi
11:53 PM
Apr 17
72 °FPassing clouds.22 mph91%30.10 "Hg10 mi
10:53 PM72 °FOvercast.21 mph87%30.12 "Hg10 mi
9:53 PM72 °FLight rain. Fog.22 mph87%30.12 "Hg6 mi
9:00 PM72 °FHeavy rain. Fog.24 mph87%30.13 "Hg2 mi
7:53 PM74 °FMore clouds than sun.24 mph82%30.11 "Hg10 mi
6:53 PM75 °FMostly cloudy.26 mph79%30.09 "Hg10 mi
5:53 PM76 °FMostly cloudy.21 mph77%30.10 "Hg10 mi
4:53 PM76 °FMostly cloudy.22 mph77%30.09 "Hg10 mi
3:53 PM77 °FBroken clouds.25 mph74%30.09 "Hg10 mi
2:53 PM78 °FPartly sunny.20 mph74%30.12 "Hg10 mi
1:53 PM79 °FPassing clouds.13 mph74%30.14 "Hg10 mi
12:53 PM77 °FScattered clouds.14 mph77%30.15 "Hg10 mi
11:53 AM77 °FPassing clouds.18 mph74%30.16 "Hg10 mi
10:53 AM73 °FSunny.20 mph79%30.17 "Hg10 mi
9:53 AM69 °FCloudy.17 mph84%30.16 "Hg10 mi
9:01 AM68 °FOvercast.18 mph87%30.15 "Hg10 mi
7:53 AM67 °FMostly cloudy.15 mph85%30.14 "Hg10 mi
Weather by CustomWeather, © 2014

See weather overview